Home   Weather   London   Past weeks

Flag for United Kingdom Past Weather in London, England, United Kingdom — Yesterday and Last 2 Weeks

Now
75 °F

Scattered clouds.


Feels Like: 77 °F
Forecast: 62 / 75 °F
Wind: 10 mph from Southwest

Location: Northolt

Current Time: Jun 19, 2018 at 7:20:28 pm

Latest Report: Jun 19, 2018 at 5:50 pm


Visibility: N/A

Pressure: 30.18 "Hg

Humidity: 61%

Dew Point: 61 °F

Location of LondonLocation

Past Weather in London — Graph

°F

London Temperature Yesterday

Maximum temperature yesterday: 77 °F (at 2:50 pm)
Minimum temperature yesterday: 59 °F (at 12:50 am)
Average temperature yesterday: 66 °F

High & Low Weather Summary for the Past Weeks

 TemperatureHumidityPressure
High77 °F (Jun 11, 3:50 pm)94% (Jun 5, 6:50 am)30.21 "Hg (Jun 5, 6:50 am)
Low46 °F (Jun 13, 2:50 am)30% (Jun 11, 3:50 pm)29.80 "Hg (Jun 14, 8:50 am)
Average62 °F69%30.00 "Hg
* Reported Jun 4 5:50 pm — Jun 19 5:50 pm, London. Weather by CustomWeather, © 2018

Note: Actual official high and low records may vary slightly from our data, if they occured in-between our weather recording intervals... More about our weather records

Advertising

London Weather History for the Previous 24 Hours

Scroll right to see more
 ConditionsComfort  
Time TempWeatherWind HumidityBarometerVisibility
5:50 pm
Tue, Jun 19
75 °FScattered clouds.10 mph61%30.18 "HgN/A
4:50 pm75 °FPartly sunny.12 mph61%30.18 "HgN/A
3:50 pm73 °FBroken clouds.10 mph61%30.18 "HgN/A
2:50 pm75 °FPartly sunny.10 mph61%30.18 "HgN/A
1:50 pm75 °FPartly sunny.12 mph57%30.21 "HgN/A
12:50 pm73 °FBroken clouds.9 mph57%30.21 "HgN/A
11:50 am72 °FPartly sunny.12 mph61%30.21 "HgN/A
10:50 am70 °FPartly sunny.9 mph64%30.21 "HgN/A
9:50 am70 °FBroken clouds.8 mph69%30.21 "HgN/A
8:50 am66 °FPartly sunny.8 mph73%30.21 "HgN/A
7:50 am64 °FPartly sunny.10 mph78%30.21 "HgN/A
6:50 am64 °FPartly sunny.9 mph73%30.18 "HgN/A
5:50 am63 °FOvercast.10 mph77%30.18 "HgN/A
4:50 am63 °FOvercast.13 mph83%30.18 "HgN/A
3:50 am64 °FOvercast.13 mph83%30.15 "HgN/A
2:50 am64 °FPassing clouds.14 mph83%30.15 "HgN/A
1:50 am64 °FPartly cloudy.16 mph83%30.15 "HgN/A
12:50 am64 °FPartly cloudy.13 mph83%30.12 "HgN/A
11:50 pm
Mon, Jun 18
64 °FPartly cloudy.13 mph83%30.12 "HgN/A
10:50 pm64 °FPassing clouds.10 mph83%30.12 "HgN/A
9:50 pm66 °FPartly cloudy.10 mph78%30.12 "HgN/A
8:50 pm68 °FPartly sunny.14 mph69%30.12 "HgN/A
7:50 pm70 °FPartly sunny.17 mph64%30.09 "HgN/A
Weather by CustomWeather, © 2018

See weather overview